User: anonymous   Login
Location: Saint-Usage
(47.1052°N, 5.2587°E)
Time: 02:46:36
(UTC+01:00)
Language:

NANOSAT C BR1 - Orbit

View from above orbital plane
View from above orbital plane
View from above satellite
View from above satellite

Ground track
Ground track

The orbit data is extracted from the following two-line orbital elements,

1 40024U 14033Q   21339.54798372  .00000856  00000-0  93043-4 0  9996
2 40024  97.9665 276.0353 0011480 333.2982  26.7643 14.90723398405085
Epoch (UTC): 05 December 2021 13:09:05
Eccentricity: 0.0011480
inclination: 97.9665°
perigee height: 587 km
apogee height: 603 km
right ascension of ascending node: 276.0353°
argument of perigee: 333.2982°
revolutions per day: 14.90723398
mean anomaly at epoch: 26.7643°
orbit number at epoch: 40508

The dashed part of the orbit path shows where the satellite is in the earth's shadow,  

DLR